Total_Precipitation_Accumulation
1.57 1.52 1.36 1.30 1.18 1.25 1.39 1.50 1.54 1.61 1.66 1.62 1.51 1.66 1.74 1.88 2.00 2.16 2.56 2.81 3.09 3.67 4.03 3.90 3.54 3.27 3.15 3.12 3.31 3.19 3.19 3.29 3.17 3.14 3.11 3.00 2.87 2.73 2.66 2.60 2.58 2.52 2.56
1.46 1.50 1.43 1.42 1.33 1.32 1.42 1.43 1.37 1.51 1.69 1.63 1.49 1.51 1.58 1.71 1.90 1.94 2.13 2.39 2.69 3.10 3.89 4.28 4.13 3.85 3.81 3.63 3.85 3.77 3.55 3.27 3.09 3.14 3.08 3.01 2.97 2.77 2.61 2.48 2.46 2.33 2.31
1.26 1.36 1.38 1.33 1.34 1.45 1.50 1.55 1.38 1.42 1.48 1.48 1.49 1.47 1.42 1.50 1.62 1.71 1.67 1.76 1.97 2.40 3.14 3.89 4.37 4.34 4.25 4.13 4.03 3.80 3.63 3.36 3.15 3.07 2.93 2.78 2.79 2.71 2.53 2.46 2.34 2.34 2.29
1.14 1.31 1.34 1.28 1.27 1.45 1.60 1.69 1.59 1.57 1.55 1.54 1.57 1.55 1.45 1.50 1.42 1.51 1.56 1.51 1.75 1.79 2.26 2.97 3.57 3.81 4.10 4.27 4.12 3.84 3.60 3.29 3.01 2.91 2.84 2.62 2.58 2.54 2.43 2.49 2.36 2.25 2.20
1.21 1.41 1.52 1.52 1.46 1.50 1.56 1.55 1.65 1.68 1.67 1.68 1.59 1.57 1.55 1.51 1.54 1.44 1.53 1.57 1.54 1.66 1.89 2.20 2.69 3.09 3.45 3.71 3.90 4.07 3.97 3.49 3.09 2.99 2.92 2.61 2.47 2.54 2.39 2.35 2.27 2.08 1.98
1.53 1.68 1.69 1.78 1.80 1.73 1.74 1.71 1.77 1.74 1.68 1.74 1.60 1.49 1.50 1.44 1.59 1.68 1.66 1.70 1.61 1.58 1.96 2.20 2.26 2.31 2.80 3.13 3.46 3.88 4.11 3.84 3.47 3.23 3.12 2.85 2.58 2.65 2.38 2.28 2.26 2.01 1.88
1.79 2.06 2.01 2.09 2.16 2.11 2.08 2.06 2.29 2.25 1.99 1.80 1.90 1.76 1.60 1.49 1.68 1.76 1.75 1.90 1.90 1.98 2.22 2.26 2.12 2.03 2.03 2.31 2.72 3.29 3.95 4.00 3.69 3.38 3.22 2.98 2.66 2.54 2.26 2.18 2.20 2.08 1.86
1.66 1.84 2.12 2.27 2.25 2.40 2.51 2.47 2.83 2.98 2.48 2.04 2.19 2.47 2.22 2.03 1.85 1.70 1.77 1.89 2.08 2.26 2.34 2.21 2.06 1.90 1.82 1.89 1.93 2.42 3.19 3.84 3.76 3.45 3.18 2.90 2.65 2.44 2.31 2.30 2.26 2.28 2.04
1.61 1.75 1.91 2.07 2.12 2.29 2.48 2.60 2.91 3.45 3.22 2.55 2.36 2.83 2.64 2.46 2.32 1.97 1.79 1.80 1.94 2.24 2.49 2.43 2.19 1.95 1.77 1.84 1.81 2.04 2.49 3.03 3.57 3.65 3.43 3.08 2.82 2.52 2.43 2.51 2.31 2.43 2.42
1.48 1.61 1.75 1.87 2.02 2.08 2.27 2.36 2.49 3.08 3.50 3.16 2.86 2.55 2.25 2.24 2.45 2.44 2.06 1.86 1.85 2.02 2.27 2.27 2.15 2.09 1.92 1.83 1.74 1.74 2.06 2.39 3.04 3.55 3.76 3.58 3.24 2.89 2.83 2.98 2.67 2.52 2.48
1.57 1.58 1.75 1.81 1.84 1.93 2.07 2.41 2.69 2.98 3.24 3.28 3.26 3.04 2.72 2.44 2.11 2.41 2.50 2.16 2.00 1.95 2.02 2.11 2.04 2.03 2.01 1.94 2.02 1.80 1.76 1.99 2.38 3.06 3.71 3.98 3.72 3.38 3.39 3.45 3.04 2.84 2.70
1.73 1.73 1.78 1.80 1.78 1.82 1.95 2.21 2.54 2.78 3.11 3.35 3.32 3.12 2.99 2.86 2.59 2.53 2.44 2.29 2.29 2.13 1.98 1.95 1.85 1.86 2.02 2.18 2.16 2.14 1.85 1.75 1.86 2.19 2.76 3.31 3.58 3.63 3.79 3.78 3.51 3.45 3.24
1.67 1.69 1.75 1.87 1.93 1.98 2.11 2.29 2.47 2.43 2.62 3.06 3.10 2.97 2.91 2.74 2.69 2.76 2.71 2.39 2.24 1.97 1.85 1.81 1.71 1.81 1.82 1.90 2.18 2.36 1.94 1.66 1.49 1.72 1.97 2.27 2.67 3.15 3.64 3.91 3.93 3.95 3.73
1.63 1.56 1.59 1.70 1.80 1.97 2.03 2.11 2.17 2.14 2.25 2.51 2.61 2.81 2.93 2.73 2.65 2.57 2.57 2.64 2.39 2.09 1.92 1.77 1.61 1.63 1.65 1.73 2.02 2.21 1.89 1.68 1.31 1.29 1.42 1.69 1.96 2.30 2.74 3.27 3.70 3.92 3.97
1.41 1.29 1.28 1.35 1.44 1.50 1.59 1.75 1.86 1.95 2.03 2.16 2.28 2.42 2.59 2.73 2.69 2.53 2.54 2.55 2.56 2.35 2.13 1.96 1.75 1.53 1.59 1.72 1.97 1.79 1.71 1.72 1.42 1.25 1.20 1.34 1.54 1.68 1.91 2.19 2.56 2.97 3.30
1.38 1.26 1.18 1.15 1.14 1.11 1.14 1.33 1.52 1.64 1.75 1.90 2.08 2.22 2.27 2.34 2.56 2.57 2.45 2.48 2.43 2.32 2.17 1.93 1.80 1.60 1.72 1.67 1.87 1.69 1.72 1.83 1.51 1.36 1.24 1.25 1.35 1.32 1.29 1.40 1.54 1.79 2.25
1.42 1.38 1.25 1.17 1.24 1.24 1.20 1.26 1.29 1.35 1.43 1.57 1.70 1.83 1.99 2.25 2.56 2.63 2.61 2.51 2.44 2.34 2.11 1.86 1.66 1.56 1.86 1.95 1.87 1.76 1.76 1.73 1.52 1.46 1.31 1.21 1.24 1.23 1.17 1.10 1.11 1.27 1.56
1.00 1.12 1.24 1.15 1.11 1.12 1.15 1.21 1.22 1.27 1.32 1.42 1.51 1.63 1.82 2.13 2.46 2.68 2.78 2.68 2.54 2.43 2.29 2.12 1.77 1.53 1.64 1.97 2.08 2.02 1.84 1.70 1.56 1.53 1.37 1.23 1.19 1.19 1.14 1.08 1.04 1.07 1.16
0.80 0.82 0.93 0.92 1.00 1.09 1.11 1.14 1.16 1.23 1.29 1.35 1.48 1.55 1.60 1.82 2.03 2.22 2.40 2.54 2.53 2.53 2.49 2.24 1.93 1.65 1.58 1.75 2.00 2.00 1.96 1.96 1.71 1.64 1.61 1.46 1.32 1.27 1.21 1.08 1.06 1.07 1.10
0.89 0.90 1.02 1.06 1.00 1.00 1.04 1.10 1.13 1.13 1.17 1.22 1.28 1.36 1.43 1.49 1.69 1.84 1.95 2.17 2.37 2.64 2.70 2.54 2.26 1.93 1.81 1.70 1.79 1.96 2.05 1.99 1.90 1.72 1.67 1.53 1.51 1.44 1.41 1.27 1.13 1.05 1.07
1.00 0.98 1.06 1.14 1.19 1.15 1.12 1.17 1.14 1.12 1.15 1.16 1.19 1.18 1.23 1.28 1.39 1.58 1.62 1.84 2.15 2.45 2.56 2.65 2.53 2.21 1.93 1.78 1.54 1.65 1.93 2.15 2.13 2.06 2.04 1.76 1.59 1.42 1.39 1.42 1.40 1.27 1.12
0.95 0.89 0.88 0.91 0.99 1.06 1.36 1.30 1.08 1.01 1.07 1.12 1.17 1.15 1.18 1.15 1.12 1.21 1.35 1.47 1.76 2.00 2.15 2.26 2.29 2.13 1.91 1.78 1.74 1.69 1.78 1.95 1.96 1.84 1.90 1.98 1.88 1.71 1.59 1.48 1.52 1.58 1.48
0.88 0.81 0.80 0.75 0.77 0.97 1.14 0.95 0.91 0.89 1.00 1.12 1.21 1.25 1.20 1.13 1.16 1.15 1.19 1.21 1.27 1.49 1.72 1.95 2.01 1.90 1.98 1.90 1.85 1.74 1.75 1.76 1.72 1.78 1.86 1.95 1.94 1.85 1.75 1.74 1.74 1.59 1.53
0.84 0.77 0.79 0.84 0.82 0.88 1.01 0.84 0.79 0.81 0.99 1.13 1.15 1.13 1.21 1.24 1.27 1.31 1.21 1.25 1.19 1.19 1.31 1.34 1.50 1.77 1.97 2.16 2.15 2.04 2.05 1.96 1.85 1.90 1.90 1.90 1.76 1.69 1.61 1.62 1.70 1.52 1.41
0.95 0.88 0.94 0.97 0.91 0.88 0.98 0.90 0.89 0.90 1.03 1.13 1.10 1.14 1.26 1.33 1.53 1.57 1.39 1.42 1.35 1.31 1.31 1.43 1.52 1.66 1.80 1.93 2.10 2.16 2.13 2.12 1.98 1.86 1.77 1.73 1.62 1.64 1.62 1.52 1.49 1.49 1.37
0.88 0.94 0.94 0.87 0.84 0.92 1.05 0.98 1.00 1.06 1.15 1.26 1.24 1.27 1.56 1.56 1.62 1.53 1.39 1.51 1.46 1.30 1.22 1.25 1.31 1.41 1.47 1.59 1.74 1.79 1.99 2.16 2.07 1.88 1.60 1.55 1.54 1.59 1.67 1.53 1.43 1.34 1.31